Location: Dobrzeń Wielki
(50.7693°N, 17.8414°E)
Time: 09:12:33
(UTC+01:00)

Envisat - Pass Details

Date: 25 October 2019
Orbit: 764 x 766 km, 98.1° (Epoch: 17 November)

Event Time Altitude Azimuth Distance (km) Brightness Sun altitude
Rises 19:44:52 0° 197° (SSW) 3,222 6.4 -20.8°
Reaches altitude 10° 19:47:30 10° 210° (SSW) 2,301 5.7 -21.2°
Maximum altitude 19:51:46 27° 267° (W) 1,446 5.1 -21.9°
Drops below altitude 10° 19:56:05 10° 325° (NW) 2,315 6.0 -22.5°
Sets 19:58:45 0° 338° (NNW) 3,246 6.7 -23.0°
